Location: Alta
(39.2070°N, 120.8111°W)
Time: 15:01:36
(UTC+00:00)

CAS-4A - Visible Passes

Search period start: 25 March 2023 00:00
Search period end: 04 April 2023 00:00
Orbit: 510 x 527 km, 43.0° (Epoch: 25 March)

Date Brightness Start Highest point End Pass type
(mag) Time Alt. Az. Time Alt. Az. Time Alt. Az.
25 Mar ? 12:13:07 10° SSE 12:14:58 13° SE 12:16:50 10° ESE visible
26 Mar ? 11:57:53 14° SSE 11:58:40 15° SE 12:01:02 10° ESE visible
27 Mar ? 11:42:35 18° SE 11:42:35 18° SE 11:45:04 10° E visible
27 Mar ? 13:17:39 10° WSW 13:21:39 77° SSE 13:25:40 10° ENE visible
28 Mar ? 11:27:09 18° ESE 11:27:09 18° ESE 11:28:59 10° E visible
28 Mar ? 13:02:07 15° WSW 13:05:20 86° SSE 13:09:22 10° ENE visible
29 Mar ? 11:11:36 16° ESE 11:11:36 16° ESE 11:12:48 10° E visible
29 Mar ? 12:46:34 23° WSW 12:49:01 86° NNW 12:53:02 10° ENE visible
30 Mar ? 10:55:58 13° E 10:55:58 13° E 10:56:34 10° E visible
30 Mar ? 12:30:55 32° W 12:32:39 79° NNW 12:36:41 10° ENE visible
31 Mar ? 10:40:15 10° E 10:40:15 10° E 10:40:16 10° E visible
31 Mar ? 12:15:12 46° W 12:16:16 72° NNW 12:20:16 10° ENE visible
01 Apr ? 11:59:25 61° NW 11:59:50 66° NNW 12:03:50 10° ENE visible
02 Apr ? 11:43:35 61° N 11:43:35 61° N 11:47:21 10° ENE visible
03 Apr ? 11:27:42 47° NE 11:27:42 47° NE 11:30:52 10° ENE visible
03 Apr ? 13:03:05 10° WNW 13:06:59 50° N 13:10:54 10° E visible
